Temp
69 71 73 74 74 74 73 74 74 74 75 75 75 76 76 76 76 76 76 76 76 77 78 78 77 77 77 77 76 76 76 76 76 76 76 77 76 76 75 74 73 73 75
71 72 72 73 74 74 74 73 74 74 75 75 75 75 75 75 75 75 76 76 76 78 78 77 77 77 77 76 75 74 74 74 74 75 75 76 76 75 74 73 73 73 74
71 72 72 73 74 74 74 74 74 75 75 75 75 75 75 75 75 75 75 75 77 78 78 77 77 77 76 74 73 73 73 73 73 73 73 72 73 75 74 73 73 74 74
71 71 72 72 73 74 74 74 74 75 75 75 75 75 75 75 75 75 75 75 76 77 78 77 77 76 74 73 72 72 72 72 71 71 70 70 72 74 74 74 74 73 73
70 71 71 72 73 74 74 74 74 74 74 74 74 75 75 75 75 75 74 74 75 76 78 77 76 75 72 71 71 71 71 70 70 69 66 69 71 73 73 73 73 73 73
70 70 70 71 72 73 74 74 74 73 73 73 73 74 75 75 75 74 73 74 75 76 77 76 74 72 71 71 70 70 70 69 68 65 68 71 70 73 73 72 71 71 71
68 68 69 69 71 73 74 74 73 73 71 72 72 73 73 74 74 73 73 73 74 75 76 74 72 71 71 70 70 69 69 68 65 65 66 67 70 73 73 72 71 71 70
68 67 68 71 71 72 73 73 72 71 71 70 70 71 72 72 72 72 73 72 73 73 73 72 71 71 70 70 69 68 67 68 66 66 66 68 71 72 73 72 70 70 70
67 67 67 68 70 70 70 70 70 70 70 69 69 69 69 69 68 70 71 71 71 71 72 71 71 69 69 69 68 67 66 67 65 65 67 68 71 71 71 71 70 70 69
65 65 65 66 67 69 69 69 68 69 69 68 69 69 68 68 68 68 69 69 70 71 71 70 70 69 68 68 67 66 66 66 64 64 66 68 71 71 71 70 70 69 69
63 64 64 64 64 65 67 67 69 69 68 68 68 68 66 64 64 66 67 68 69 69 71 69 69 68 67 67 66 66 66 64 64 64 64 69 71 72 72 69 69 68 68
60 62 63 63 63 64 66 66 66 67 67 67 66 65 63 61 63 65 67 68 69 69 69 68 68 66 66 65 66 66 64 64 65 64 66 68 70 71 70 69 69 69 70
62 62 62 63 63 63 63 63 65 65 64 64 64 63 62 62 62 63 64 66 66 68 67 67 65 63 64 65 64 62 63 64 64 64 66 68 70 72 70 69 69 69 69
60 62 61 62 62 62 62 62 65 65 63 63 63 62 60 62 63 63 64 64 64 64 64 63 60 61 61 62 62 62 63 64 62 61 64 67 69 71 69 69 70 69 68
59 61 61 60 61 62 62 62 63 65 63 63 63 62 62 62 63 64 64 64 64 63 64 60 60 61 60 61 62 62 62 61 61 63 61 66 67 69 70 70 69 69 68
62 60 60 60 60 61 62 61 62 63 64 64 63 63 63 63 62 63 62 63 62 62 63 62 59 60 59 61 60 62 60 59 59 59 63 64 65 67 69 69 69 69 68
63 61 59 59 59 60 60 60 61 61 63 62 63 62 63 63 62 63 62 60 61 60 62 61 59 59 56 61 59 58 60 59 58 58 59 60 62 64 66 68 68 68 68
61 60 60 62 59 58 58 58 59 62 63 63 63 63 64 63 62 60 62 60 58 58 61 61 60 58 58 59 58 58 59 60 58 58 60 60 59 60 63 65 66 67 67
61 60 59 59 58 58 57 57 57 61 63 63 63 62 63 63 62 60 60 59 58 59 60 61 59 60 59 59 58 57 58 59 58 61 59 59 59 59 58 63 64 64 65
60 60 59 59 58 58 58 58 58 60 62 62 63 63 63 64 62 60 58 57 58 59 60 61 59 58 60 60 62 57 56 58 59 58 60 61 59 59 59 59 59 59 62
59 58 58 57 59 60 58 58 58 58 58 60 62 63 63 63 62 60 58 57 59 60 61 61 60 58 55 61 57 54 53 56 56 57 58 58 58 59 57 57 56 56 57
58 58 57 58 60 60 60 59 56 57 57 58 59 61 63 63 62 61 59 57 61 61 60 60 61 55 55 60 58 55 50 53 55 55 56 57 56 58 57 56 56 55 55
58 57 57 60 60 60 57 55 55 55 55 55 56 58 59 63 62 61 60 59 61 62 60 62 62 61 58 56 61 55 49 48 51 52 53 54 56 55 56 57 57 57 56
57 57 58 59 59 59 57 55 55 55 53 55 55 56 57 60 62 62 61 60 62 62 61 62 63 62 62 58 55 57 56 54 50 47 52 55 55 55 55 55 57 57 57
58 56 58 59 58 57 57 54 54 55 56 55 55 55 56 57 60 61 60 59 59 60 62 62 59 58 62 56 57 54 55 54 54 52 48 49 52 55 57 57 57 57 58
58 57 58 59 58 58 57 54 53 55 54 53 54 54 55 56 57 59 59 58 59 58 59 59 57 58 56 56 56 56 56 55 54 53 50 50 51 53 57 57 57 58 57
MSLP
1008.53 1008.44 1008.52 1008.82 1009.11 1009.32 1009.65 1009.83 1009.73 1009.53 1009.67 1009.81 1009.95 1010.21 1010.53 1010.94 1011.39 1011.82 1012.26 1012.57 1012.78 1012.83 1013.09 1013.37 1013.60 1013.99 1014.48 1014.94 1015.31 1015.51 1015.69 1015.89 1016.21 1016.27 1016.56 1016.74 1017.11 1017.44 1017.77 1018.07 1018.13 1018.19 1018.40
1007.88 1008.29 1008.51 1008.75 1009.09 1009.36 1009.57 1009.83 1010.05 1010.04 1009.90 1010.03 1010.27 1010.47 1010.68 1011.03 1011.46 1011.93 1012.26 1012.53 1012.85 1013.31 1013.54 1013.88 1014.07 1014.22 1014.72 1015.21 1015.59 1015.85 1016.12 1016.33 1016.58 1016.75 1017.00 1017.23 1017.43 1017.83 1018.25 1018.49 1018.63 1018.67 1018.92
1007.82 1008.15 1008.51 1008.62 1009.01 1009.41 1009.58 1009.66 1010.01 1010.21 1010.24 1010.21 1010.36 1010.50 1011.06 1011.31 1011.68 1012.30 1012.65 1012.83 1013.10 1013.34 1013.85 1014.11 1014.37 1014.68 1015.13 1015.52 1015.75 1016.11 1016.45 1016.78 1016.97 1017.22 1017.44 1017.81 1018.00 1018.16 1018.55 1018.84 1018.99 1019.18 1019.31
1007.60 1007.92 1008.24 1008.36 1008.73 1009.22 1009.57 1009.73 1009.99 1010.18 1010.46 1010.74 1010.90 1011.08 1011.44 1011.70 1011.76 1012.17 1012.72 1013.02 1013.32 1013.69 1013.97 1014.35 1014.54 1015.06 1015.61 1015.78 1016.05 1016.37 1016.75 1017.13 1017.41 1017.59 1018.03 1018.22 1018.44 1018.58 1018.83 1019.04 1019.31 1019.68 1019.82
1007.68 1007.90 1008.15 1008.30 1008.46 1008.93 1009.31 1009.57 1009.91 1010.28 1010.55 1010.76 1011.05 1011.18 1011.57 1011.73 1012.50 1012.06 1012.77 1013.22 1013.47 1013.85 1014.11 1014.61 1014.87 1015.40 1015.97 1016.24 1016.43 1016.71 1017.06 1017.36 1017.70 1018.15 1018.46 1018.47 1018.65 1018.83 1019.08 1019.38 1019.70 1019.87 1020.12
1007.79 1007.96 1008.17 1008.34 1008.52 1008.86 1009.27 1009.70 1009.94 1010.16 1010.52 1010.88 1011.20 1011.22 1011.48 1011.88 1012.09 1012.64 1012.88 1013.40 1013.69 1013.91 1014.41 1014.76 1015.36 1015.95 1016.15 1016.61 1016.81 1017.03 1017.37 1017.69 1018.11 1018.53 1018.57 1018.93 1019.05 1019.16 1019.38 1019.87 1020.24 1020.49 1020.75
1007.75 1007.96 1008.22 1008.63 1008.86 1008.64 1009.17 1009.65 1009.95 1010.37 1010.78 1011.01 1011.21 1011.57 1011.85 1011.90 1012.22 1012.66 1012.67 1013.29 1014.11 1013.90 1014.39 1015.25 1015.72 1016.36 1016.50 1016.77 1017.11 1017.37 1017.56 1018.03 1018.31 1018.70 1018.94 1019.24 1019.45 1019.47 1019.93 1020.38 1020.77 1021.05 1021.20
1007.54 1007.93 1008.10 1008.47 1008.80 1009.00 1009.06 1009.47 1009.89 1010.41 1010.93 1011.20 1011.46 1011.77 1011.88 1012.21 1012.58 1012.78 1012.96 1012.70 1013.91 1014.03 1013.78 1015.55 1015.88 1016.56 1016.82 1017.08 1017.42 1017.67 1017.82 1018.09 1018.64 1018.91 1019.28 1019.36 1019.79 1019.71 1020.37 1020.68 1021.22 1021.51 1021.70
1007.66 1008.05 1008.22 1008.43 1008.63 1008.94 1009.08 1009.34 1009.76 1010.30 1010.72 1011.13 1011.56 1011.93 1012.15 1012.44 1012.75 1013.21 1013.39 1013.42 1013.71 1014.21 1014.21 1015.58 1016.01 1016.74 1017.12 1017.34 1017.76 1018.04 1018.26 1018.34 1018.82 1019.23 1019.72 1019.52 1019.98 1020.43 1020.71 1021.27 1021.59 1021.90 1022.20
1007.75 1008.05 1008.32 1008.54 1008.62 1008.74 1009.03 1009.33 1009.72 1010.18 1010.65 1010.98 1011.38 1011.85 1012.22 1012.51 1012.95 1013.49 1013.72 1013.78 1013.80 1013.75 1014.76 1015.37 1016.21 1016.72 1017.36 1017.74 1017.96 1018.31 1018.51 1018.82 1019.20 1019.53 1019.89 1019.75 1020.57 1020.83 1021.21 1021.64 1021.96 1022.30 1022.55
1008.06 1008.10 1008.24 1008.61 1008.67 1008.73 1008.95 1009.26 1009.63 1010.05 1010.53 1010.91 1011.28 1011.75 1012.13 1012.51 1012.85 1013.42 1013.68 1013.55 1013.31 1013.10 1014.89 1015.61 1016.37 1016.77 1017.46 1017.96 1018.22 1018.42 1018.67 1019.31 1019.69 1019.81 1019.74 1020.24 1020.78 1020.95 1021.43 1021.95 1022.34 1022.64 1022.95
1007.98 1007.99 1007.94 1008.33 1008.56 1008.61 1008.83 1009.22 1009.64 1009.96 1010.43 1010.87 1011.27 1011.52 1012.07 1012.49 1012.81 1013.07 1013.24 1013.11 1013.25 1013.69 1014.13 1015.28 1016.41 1016.90 1017.52 1018.17 1018.52 1018.57 1019.03 1019.58 1020.04 1019.90 1020.13 1020.58 1020.96 1021.23 1021.74 1022.22 1022.59 1022.95 1023.03
1007.44 1007.69 1007.62 1008.01 1008.31 1008.47 1008.69 1009.06 1009.43 1010.01 1010.41 1010.77 1011.12 1011.55 1011.97 1012.36 1012.61 1012.74 1012.88 1013.00 1013.27 1013.67 1014.26 1015.29 1016.37 1017.00 1017.50 1018.19 1018.72 1018.80 1019.35 1019.75 1020.35 1019.96 1020.31 1020.78 1021.10 1021.39 1021.93 1022.50 1022.94 1023.04 1023.33
1007.19 1007.39 1007.40 1007.69 1008.13 1008.39 1008.34 1008.87 1009.20 1009.70 1010.22 1010.69 1011.08 1011.49 1011.94 1012.23 1012.42 1012.72 1012.66 1012.93 1013.42 1013.99 1014.91 1015.72 1016.51 1016.98 1017.50 1018.23 1018.72 1019.02 1019.52 1019.96 1020.28 1020.36 1020.63 1020.98 1021.33 1021.66 1022.19 1022.67 1022.90 1023.33 1023.58
1006.90 1007.20 1007.28 1007.51 1007.96 1008.16 1008.36 1008.65 1009.15 1009.46 1009.94 1010.22 1010.75 1011.24 1011.61 1011.97 1012.29 1012.40 1012.61 1013.03 1013.34 1014.26 1014.87 1015.86 1016.55 1016.93 1017.69 1018.47 1018.90 1019.03 1019.70 1020.12 1020.22 1020.61 1021.02 1021.38 1021.62 1021.99 1022.27 1022.80 1022.98 1023.45 1023.75
1006.16 1006.81 1007.17 1007.45 1007.81 1007.93 1008.25 1008.37 1008.85 1009.19 1009.50 1010.00 1010.42 1010.78 1011.22 1011.50 1011.92 1012.32 1012.52 1012.91 1013.64 1014.04 1014.90 1015.66 1016.47 1017.06 1018.06 1018.46 1019.15 1019.40 1019.99 1019.95 1020.50 1020.98 1021.30 1021.60 1021.75 1022.08 1022.30 1022.75 1023.28 1023.55 1023.88
1005.10 1006.11 1006.65 1007.15 1007.64 1007.79 1008.04 1008.21 1008.60 1008.89 1009.34 1009.89 1010.02 1010.44 1010.91 1011.25 1011.76 1011.94 1012.52 1012.92 1013.07 1013.97 1014.90 1015.83 1016.58 1017.20 1018.42 1018.68 1019.30 1019.73 1020.00 1020.35 1020.74 1021.37 1021.70 1021.86 1021.94 1022.23 1022.53 1022.85 1023.45 1023.63 1023.92
1004.73 1005.51 1006.25 1006.83 1007.36 1007.67 1007.92 1008.11 1008.42 1008.68 1009.10 1009.46 1009.74 1010.18 1010.55 1011.03 1011.57 1011.91 1012.19 1012.74 1013.33 1014.16 1014.89 1015.78 1016.64 1017.57 1018.30 1018.73 1019.33 1019.71 1020.11 1020.52 1021.00 1021.43 1021.87 1022.08 1022.25 1022.45 1022.72 1022.98 1023.42 1023.64 1024.03
1003.66 1004.95 1005.76 1006.53 1007.00 1007.41 1007.92 1008.12 1008.36 1008.56 1008.82 1009.09 1009.50 1010.05 1010.46 1010.86 1011.46 1011.77 1012.16 1012.49 1013.59 1014.21 1015.03 1015.71 1016.68 1017.27 1018.01 1018.74 1019.22 1019.83 1020.34 1020.73 1021.14 1021.37 1021.77 1022.24 1022.27 1022.62 1023.06 1023.17 1023.42 1023.63 1023.91
1003.29 1004.40 1005.27 1006.26 1006.94 1007.42 1007.92 1008.21 1008.39 1008.59 1008.79 1008.88 1009.37 1009.69 1010.18 1010.45 1011.15 1011.74 1012.29 1013.23 1013.69 1014.49 1015.34 1015.74 1016.36 1017.11 1017.76 1018.47 1019.16 1020.02 1020.59 1021.02 1021.22 1021.56 1021.65 1022.24 1022.40 1022.57 1022.95 1023.31 1023.51 1023.72 1023.91
1003.33 1004.16 1004.92 1005.91 1006.75 1007.21 1007.74 1008.01 1008.26 1008.41 1008.75 1008.93 1009.17 1009.24 1009.80 1010.04 1010.77 1011.56 1012.24 1013.03 1013.75 1014.56 1014.91 1015.45 1016.26 1016.94 1017.97 1018.35 1019.22 1020.71 1021.32 1021.56 1021.65 1021.75 1021.87 1022.03 1022.25 1022.35 1022.71 1023.31 1023.58 1023.78 1023.98
1002.57 1003.64 1004.64 1005.50 1006.28 1006.61 1007.27 1007.60 1007.84 1008.28 1008.71 1008.93 1009.13 1009.14 1009.34 1009.80 1010.13 1010.99 1011.96 1012.68 1013.58 1014.29 1014.83 1015.11 1015.71 1016.83 1017.71 1018.05 1018.51 1019.89 1021.40 1022.07 1022.04 1022.13 1022.20 1022.02 1022.16 1022.26 1022.70 1023.05 1023.29 1023.53 1023.82
1002.52 1003.08 1004.09 1005.15 1005.76 1006.26 1007.05 1007.53 1007.90 1008.40 1008.78 1009.04 1009.21 1009.16 1009.30 1009.41 1009.63 1010.38 1011.56 1012.39 1012.97 1013.63 1014.34 1014.74 1015.30 1015.91 1017.07 1018.02 1018.12 1018.65 1020.43 1021.23 1021.79 1022.05 1022.11 1022.07 1022.19 1022.38 1022.48 1022.70 1022.98 1023.26 1023.57
1002.05 1003.06 1004.00 1004.98 1005.52 1005.99 1006.74 1007.27 1007.55 1007.89 1008.27 1008.67 1009.09 1009.33 1009.34 1009.30 1009.49 1010.28 1010.98 1011.99 1012.50 1013.29 1013.61 1014.48 1015.11 1015.66 1016.37 1017.35 1018.24 1018.35 1018.75 1019.72 1020.80 1021.91 1021.73 1021.76 1021.95 1022.14 1022.32 1022.40 1022.58 1022.80 1023.07
1001.96 1002.61 1003.49 1004.52 1005.27 1005.72 1006.27 1007.02 1007.31 1007.66 1008.06 1008.62 1009.15 1009.44 1009.46 1009.53 1009.77 1009.59 1010.51 1011.57 1012.03 1012.81 1013.91 1013.87 1014.95 1015.49 1016.15 1016.96 1017.72 1018.54 1019.12 1019.68 1019.37 1020.37 1021.28 1021.56 1021.79 1021.67 1021.76 1021.90 1022.00 1022.22 1022.39
1002.81 1002.84 1003.38 1004.08 1004.70 1005.43 1006.10 1006.82 1007.03 1007.45 1008.03 1008.59 1009.11 1009.37 1009.42 1009.55 1009.67 1009.94 1010.38 1010.82 1012.26 1012.73 1013.75 1014.14 1014.47 1015.32 1016.10 1016.79 1017.05 1018.03 1018.40 1018.72 1019.53 1020.11 1020.68 1021.05 1021.10 1021.23 1021.16 1021.19 1021.35 1021.42 1021.52
Wind_Speed
4 6 10 10 10 9 9 10 13 15 17 18 19 21 23 23 22 20 19 17 16 17 18 18 21 21 20 20 20 19 19 18 18 19 21 22 22 22 21 20 18 15 20
11 10 12 12 12 12 13 12 12 14 16 19 19 20 22 21 21 20 19 19 18 18 19 20 20 21 22 21 19 18 18 18 18 19 20 21 23 22 22 21 19 17 21
11 10 12 14 14 13 14 15 14 14 16 17 17 20 20 20 20 18 16 17 17 19 19 21 21 22 23 21 20 20 19 18 18 19 19 11 13 23 23 21 19 20 21
12 11 12 17 17 15 14 13 14 16 16 15 16 16 16 17 19 19 17 16 17 18 18 20 21 22 22 21 21 21 21 19 19 19 10 10 12 22 21 20 20 19 18
9 9 10 16 17 17 15 15 14 14 16 17 17 18 17 18 14 18 16 15 18 17 17 19 21 22 20 20 21 20 20 18 17 11 7 10 10 17 19 18 17 17 15
8 7 9 13 14 15 14 14 13 16 17 17 17 17 19 19 19 14 15 14 16 18 17 18 20 20 19 19 19 19 18 18 14 7 10 13 10 20 20 18 17 17 17
8 6 7 8 10 15 14 14 14 16 19 20 18 17 16 16 16 18 19 16 13 17 15 17 20 18 17 18 19 19 18 16 9 8 9 9 11 21 20 19 18 17 18
10 7 7 10 10 10 13 14 13 18 18 17 17 15 15 15 13 14 16 22 19 13 18 18 18 17 15 17 18 17 17 16 10 10 9 10 16 20 18 19 18 18 18
7 7 5 6 9 10 9 12 13 19 20 18 17 15 14 13 11 10 12 14 16 16 20 19 18 16 16 18 18 16 16 16 10 7 8 8 18 20 19 19 18 18 18
7 7 7 6 6 6 6 8 9 20 19 18 17 15 12 11 12 10 11 14 19 16 21 18 17 17 16 19 18 16 15 13 8 7 6 9 18 19 19 19 18 18 18
5 7 6 7 6 6 5 5 9 20 19 19 15 12 8 4 6 11 13 19 21 26 19 18 18 17 16 18 18 17 13 5 6 6 5 17 18 19 19 19 18 18 18
9 9 9 7 7 7 5 6 5 9 9 9 7 7 4 5 5 11 14 20 26 26 26 24 18 16 13 9 9 14 5 7 5 6 6 17 19 20 19 18 18 17 18
9 7 9 8 7 8 6 5 3 4 4 4 7 7 5 4 4 3 6 9 9 17 10 15 13 6 10 9 8 6 7 7 4 4 10 17 18 20 19 17 17 17 17
9 9 8 8 7 7 5 5 7 6 5 5 6 8 5 4 4 3 5 8 7 7 10 9 5 9 9 8 8 9 8 7 4 3 6 11 15 19 19 19 17 17 16
9 10 10 7 7 7 7 5 7 8 6 7 7 7 6 6 4 5 4 6 7 7 9 9 7 8 8 8 9 10 8 7 6 4 3 12 16 18 19 17 17 16 16
11 12 10 8 7 7 7 7 7 7 7 7 7 8 8 6 6 4 4 7 9 9 7 10 8 8 7 8 7 8 8 6 6 5 5 7 13 14 16 16 16 16 15
13 13 14 11 8 8 7 6 6 6 7 6 8 9 10 8 6 7 7 6 9 9 10 9 8 6 5 7 9 7 7 6 6 4 4 3 7 10 11 14 14 14 14
13 17 13 10 10 7 6 5 4 6 7 7 6 6 10 8 8 4 10 10 6 8 8 9 10 7 6 8 7 6 6 7 6 6 4 4 3 4 7 11 12 13 13
17 17 15 11 10 8 6 5 5 5 4 6 6 6 9 10 10 7 6 8 9 8 8 9 9 9 8 8 8 6 6 6 6 7 6 5 6 4 3 8 10 10 12
16 15 14 11 10 8 6 5 3 3 3 3 6 8 10 9 12 8 7 8 9 8 7 8 11 5 9 9 9 7 4 4 5 5 7 5 4 6 5 5 5 5 9
14 15 15 14 13 10 8 8 6 5 2 3 4 8 12 9 13 12 8 9 8 10 12 10 10 12 4 8 9 5 4 3 2 4 4 5 5 5 5 5 3 3 4
18 16 15 14 16 13 9 7 3 3 2 2 2 4 9 11 15 13 12 11 12 9 10 13 12 5 4 9 8 5 3 2 1 3 3 4 6 5 5 6 6 6 5
18 18 17 17 16 13 8 6 4 4 3 2 2 2 3 12 13 14 14 12 14 11 9 12 12 11 10 2 11 6 4 3 3 3 6 4 5 4 5 6 6 6 6
17 14 15 17 15 13 11 8 12 6 3 2 2 2 2 4 12 16 16 15 15 8 12 11 9 7 12 10 2 3 5 5 5 2 2 6 4 6 6 4 7 8 8
16 15 16 16 14 12 11 8 7 7 5 4 3 4 4 3 5 14 16 15 15 10 10 12 9 7 8 6 6 3 3 2 4 3 2 2 2 4 6 7 7 7 9
12 12 16 16 13 11 11 8 9 10 8 7 5 4 4 3 3 8 13 16 14 9 11 9 8 8 6 5 3 4 4 4 3 3 2 3 4 4 8 7 8 8 8
Wind_Direction
207 177 165 163 149 132 123 122 124 126 123 121 120 124 127 129 132 133 134 134 128 124 125 123 124 124 125 125 121 120 119 120 118 113 112 109 105 100 97 92 89 90 93
155 172 169 162 153 145 138 128 130 130 127 124 126 127 130 133 135 138 140 137 129 126 129 126 125 126 128 126 123 116 114 111 115 114 113 111 112 107 100 97 94 95 95
152 163 171 163 158 156 152 144 140 136 132 133 134 132 134 134 135 135 135 135 137 139 136 134 132 129 132 124 118 115 111 108 110 106 100 102 111 110 104 100 99 98 100
154 164 174 168 165 163 160 151 146 141 138 133 129 130 135 137 140 139 141 142 141 148 150 143 138 134 134 126 122 117 114 111 107 101 102 107 109 110 106 104 104 103 102
154 166 178 175 168 166 166 160 152 146 143 141 139 141 144 146 150 142 144 151 149 151 153 150 141 139 134 128 124 119 115 106 99 96 103 113 110 109 102 97 95 94 93
162 173 177 176 171 168 169 165 158 152 151 141 131 140 155 155 148 148 145 156 155 153 156 150 144 142 136 133 125 120 114 110 103 110 112 110 112 113 109 105 105 105 103
161 159 158 171 182 169 171 170 164 153 140 139 136 140 141 149 151 158 153 143 163 153 153 148 141 152 139 133 127 124 119 113 107 102 100 109 120 119 120 121 115 114 109
151 153 156 171 174 173 172 171 168 149 151 147 147 145 140 144 153 156 158 155 172 154 140 149 150 151 136 135 130 126 120 114 103 107 114 118 127 122 130 127 121 119 117
133 142 157 167 172 173 183 173 169 157 157 157 161 166 172 169 170 169 170 162 159 163 150 153 155 150 133 133 130 124 120 118 116 117 123 120 128 128 129 128 132 124 122
141 152 163 179 178 163 172 187 169 163 164 164 170 180 186 185 186 200 187 181 166 152 155 147 160 145 129 136 131 127 121 109 109 119 128 129 132 135 135 134 130 129 125
174 174 169 177 177 167 159 172 174 171 170 173 179 185 188 189 196 203 196 194 168 167 163 150 161 136 133 142 137 130 114 110 125 120 116 134 144 142 138 132 133 133 138
186 191 179 179 179 167 159 156 160 165 180 185 174 156 153 159 180 192 191 184 184 170 152 150 154 126 127 143 144 127 123 128 128 134 131 138 145 143 141 139 141 142 134
189 185 188 182 179 168 163 150 153 139 146 145 148 162 155 164 187 164 190 194 180 163 152 150 143 123 137 145 144 128 136 130 144 129 150 154 154 146 139 144 150 140 139
186 190 184 183 174 174 154 159 168 162 159 165 171 163 156 173 180 170 175 168 183 153 153 136 141 130 131 135 140 127 139 142 141 111 144 154 146 148 148 153 147 146 144
191 193 188 165 177 169 166 159 173 186 175 174 172 174 164 169 176 171 168 172 157 153 156 137 151 128 130 140 142 137 138 147 121 134 129 151 149 155 155 156 151 151 146
183 191 177 175 181 161 176 166 174 176 186 174 182 183 174 168 178 175 158 168 163 157 157 145 148 136 134 136 139 140 144 124 111 123 149 156 151 159 156 157 161 155 151
191 176 180 174 177 172 173 164 162 163 169 181 183 168 178 170 166 186 167 153 150 149 151 143 135 120 120 142 140 136 130 122 121 130 127 137 153 154 157 159 167 160 157
168 180 170 170 177 174 170 163 158 167 170 179 171 171 175 167 158 152 183 165 125 147 152 147 145 138 141 137 138 139 137 139 133 139 141 141 134 139 157 158 168 167 167
173 168 168 169 177 173 170 166 165 158 167 175 175 172 186 168 157 153 137 140 144 158 154 152 147 150 144 142 141 135 140 146 153 154 149 166 157 147 154 175 174 175 175
165 164 161 166 171 168 166 159 147 154 178 170 184 184 187 174 161 149 136 143 158 150 164 160 150 141 148 149 140 127 119 139 155 162 163 174 172 161 167 181 182 189 181
157 160 162 162 176 169 173 170 178 175 153 183 192 184 187 176 169 160 149 147 158 182 172 158 146 143 127 141 119 86 57 78 140 168 169 176 194 179 168 184 187 180 196
165 163 162 169 179 177 179 177 149 133 127 119 172 196 189 188 173 169 164 166 176 174 172 165 159 135 116 162 146 121 124 46 316 238 210 188 197 182 190 197 192 195 199
172 170 168 174 177 176 167 129 107 90 85 123 180 200 216 185 168 173 172 175 178 174 175 174 164 164 156 138 160 129 140 174 120 190 218 209 204 196 202 207 205 207 205
180 166 164 173 175 174 159 164 167 173 144 128 138 138 184 226 186 177 177 183 175 173 166 177 170 168 157 159 106 77 79 140 161 182 248 213 204 210 212 207 211 214 211
173 167 163 169 172 164 158 173 161 146 142 134 127 146 160 185 195 183 173 175 172 168 179 161 165 145 161 144 156 153 115 203 83 111 185 214 206 213 214 210 213 213 214
180 164 167 170 169 165 170 175 164 154 148 147 153 157 153 135 173 169 176 167 168 158 171 158 135 138 134 131 126 151 164 155 154 144 124 189 192 208 217 212 213 216 215